AirNav   Air Wisconsin Up To $57,000 Bonus
 
 1570 users online  

N71 Donegal Springs Airpark
Mount Joy/Marietta, Pennsylvania, USA

GOING TO MOUNT JOY/MARIETTA?


FAA INFORMATION EFFECTIVE 30 JANUARY 2020

Location

FAA Identifier: N71
Lat/Long: 40-05-31.9440N 076-34-27.6790W
40-05.532400N 076-34.461317W
40.0922067,-76.5743553
(estimated)
Elevation: 458 ft. / 140 m (estimated)
Variation: 09W (1975)
From city: 3 miles SW of central business district of the associated city
Time zone: UTC -5 (UTC -4 during Daylight Saving Time)
Zip code: 17547

Airport Operations

Airport use: Open to the public
Activation date: 05/1947
Control tower: no
ARTCC: NEW YORK CENTER
FSS: WILLIAMSPORT FLIGHT SERVICE STATION
NOTAMs facility: IPT (NOTAM-D service available)
Attendance: MON-FRI 0800-1700, ALL SAT UNATTND, ALL SUN UNATTND
Wind indicator: yes
Segmented circle: no
Lights: ACTVT MIRL RWY 10/28 - CTAF.
Beacon: white-green (lighted land airport)
ACTVT ROTG BCN - CTAF

Airport Communications

CTAF/UNICOM: 122.8
HARRISBURG APPROACH: 126.45
HARRISBURG DEPARTURE: 126.45
CLEARANCE DELIVERY: 127.05
WX ASOS at MDT (11 nm NW): 118.8 (717-944-1372)
WX ASOS at LNS (13 nm E): 125.675 (717-569-8860)
WX ASOS at CXY (15 nm NW): PHONE 717-770-0880
WX ASOS at THV (17 nm SW): 119.275 (717-792-5529)
WX AWOS-2 at 9D4 (19 nm NE): 118.45 (717-866-2906)

Nearby radio navigation aids

VOR radial/distance  VOR name  Freq  Var
LRPr272/13.1LANCASTER VOR/DME117.3009W
HARr129/26.0HARRISBURG VORTAC112.5010W
RAVr189/27.7RAVINE VORTAC114.6011W

 
NDB name  Hdg/Dist  Freq  Var  ID
BELLGROVE193/20.632810WBZJ -... --.. .---

Airport Services

Fuel available: 100LL
Parking: tiedowns
Airframe service: MAJOR
Powerplant service: MAJOR
Bottled oxygen: NONE
Bulk oxygen: NONE

Runway Information

Runway 10/28

Dimensions: 3250 x 50 ft. / 991 x 15 m
Surface: asphalt, in fair condition
Weight bearing capacity: 
Single wheel: 12.5
Runway edge lights: medium intensity
RUNWAY 10  RUNWAY 28
Latitude: 40-05.508200N40-05.557200N
Longitude: 076-34.809183W076-34.115083W
Elevation: 458.0 ft.400.0 ft.
Traffic pattern: leftleft
Runway heading: 094 magnetic, 085 true274 magnetic, 265 true
Displaced threshold: 300 ft.
RWY 10 DTHR BAR 300 FT FM RWY END, DTHR LGTS 300 FT FM RWY END.
no
Markings: nonprecision, in good conditionnonprecision, in good condition
Touchdown point: yes, no lightsyes, no lights

Airport Ownership and Management from official FAA records

Ownership: Privately-owned
Owner: N71, INC.
22529 CHICKADEE CIRCLE
LEXINGTON PARK, MD 20653
Phone 301-904-0299
Manager: BEN TRAVIS
186 AIRPORT RD
MARIETTA, PA 17547
Phone 717-928-4360

Airport Operational Statistics

Aircraft based on the field: 15
Single engine airplanes: 14
Multi engine airplanes: 1
    
Aircraft operations: avg 33/day *
50% local general aviation
42% transient general aviation
8% military
* for 12-month period ending 18 December 2018

Additional Remarks

A57-10 RWY 10 APCH SLOPE RATIO 20:1 TO DTHR LGTS 300 FT FM RWY END.
FOR CD CTC HARRISBURG APCH AT 800-932-0712.
A58-10 RWY 10; 15 FT ROAD 16 FT FM RWY END.
A52-10 RWY 10 HAS 30 FT HOUSE 190 FT FM DTHR, 206 FT RIGHT; APCH RATIO 6:1 TO DTHR.

Instrument Procedures

NOTE: All procedures below are presented as PDF files. If you need a reader for these files, you should download the free Adobe Reader.

NOT FOR NAVIGATION. Please procure official charts for flight.
FAA instrument procedures published for use from 30 January 2020 at 0901Z to 27 Feburary 2020 at 0900Z.

 
IAPs - Instrument Approach Procedures
RNAV (GPS) RWY 28   download (158KB)
VOR RWY 28   download (189KB)
NOTE: Special Take-Off Minimums/Departure Procedures apply   download (149KB)

Other nearby airports with instrument procedures:

KMDT - Harrisburg International Airport (11 nm NW)
58N - Reigle Field Airport (12 nm N)
KLNS - Lancaster Airport (13 nm E)
KCXY - Capital City Airport (15 nm NW)
08N - Keller Brothers Airport (16 nm NE)
KTHV - York Airport (17 nm SW)
9D4 - Deck Airport (19 nm NE)
 
Loc | Ops | Rwys | IFR | FBO | Links
Com | Nav | Svcs | Stats | Notes
Area around N71 (Donegal Springs Airpark)
 
Road maps at: MapQuest Bing Google
 
Aerial photo
WARNING: Photo may not be current or correct
Aerial photo of N71 (Donegal Springs Airpark)
Looking east.

Do you have a better or more recent aerial photo of Donegal Springs Airpark that you would like to share? If so, please send us your photo.

 
Sectional chart

 
Airport distance calculator
Flying to Donegal Springs Airpark? Find the distance to fly.

From to N71

Sunrise and sunset
Times for 20-Feb-2020
 Local
(UTC-5)
 Zulu
(UTC)
Morning civil twilight06:2611:26
Sunrise06:5411:54
Sunset17:4622:46
Evening civil twilight18:1423:14

Current date and time
Zulu (UTC)  20-Feb-2020 19:57:38
Local (UTC-5)  20-Feb-2020 14:57:38
 
METAR
KMDT 
11nm NW 
201856Z 29006KT 10SM FEW020 SCT140 OVC200 02/M11 A3042 RMK AO2 SLP304 T00221106
KLNS 
13nm E 
201953Z 32009KT 10SM CLR 02/M11 A3040 RMK AO2 SLP299 T00221111
KCXY 
15nm NW 
201856Z 01005KT 10SM CLR 02/M12 A3042 RMK AO2 SLP306 T00221117
KTHV 
18nm SW 
201953Z AUTO VRB04KT 10SM BKN120 02/M11 A3039 RMK AO2 SLP300 T00171106
KMUI 
19nm N 
201856Z 32004KT 10SM OVC130 00/M12 A3042 RMK AO2A SLP310 T00031117
TAF
KMDT 
11nm NW 
201739Z 2018/2118 30006KT P6SM BKN120 OVC200 FM202000 32007KT P6SM -SHSN BKN045 OVC150 FM210200 36011G22KT P6SM SCT050 BKN250 FM211400 32006KT P6SM SCT035
KLNS 
13nm E 
201739Z 2018/2118 30004KT P6SM BKN120 OVC200 FM202000 32007KT P6SM -SHSN BKN045 OVC150 FM210200 01011G22KT P6SM SCT050 BKN250 FM211400 33006KT P6SM SCT035
KMUI 
19nm N 
201100Z 2011/2117 35006KT 9999 BKN120 510023 QNH3037INS BECMG 2021/2022 34009KT 9999 BKN040 QNH3036INS BECMG 2108/2109 35010G15KT 9999 FEW040 QNH3045INS TX01/2020Z TNM06/2110Z
NOTAMs
Click for the latest NOTAMs
NOTAMs are issued by the DoD/FAA and will open in a separate window not controlled by AirNav.

 

 
 

FBO, Fuel Providers, and Aircraft Ground Support

  
 Business Name 
 
 Contact 
 
 Services / Description 
 
Fuel Prices
 
Comments
  
N71, Inc. 301-904-0299
no information available

If you are affiliated with N71, Inc. and would like to show here your services, contact info, web link, logo, and more, click here
100LL
SS $5.15 
 Updated 23-May-2019
 
   2 read write
SS=Self service
Update Fuel Prices
 

Would you like to see your business listed on this page?

 If your business provides an interesting product or service to pilots, flight crews, aircraft, or users of the Donegal Springs Airpark, you should consider listing it here.  To start the listing process, click on the button below
 
Add a business
 

Other Pages about Donegal Springs Airpark

Update a link
 
Copyright © AirNav, LLC. All rights reserved. Privacy Policy  Contact